GSAT-7

Last updated on Nov. 13, 2019, 4:20 a.m. UTC

1 39234U 13044B   19316.77577762 -.00000063  00000-0  00000+0 0  9990
2 39234   0.0672 101.1432 0008152 167.2365 136.5421  1.00271909 22753
UTC
Height (km)
Latitude
Longitude
Inclination
Orbital Period
UTC large
Height (km)
Speed (km/s)
/
Latitude / Longitude
Inclination (degrees)
Orbital Period (minutes)
Azimuth
Elevation
Range (km)
Doppler Factor
iOS Compass Heading
iOS Angle

Next 30 passes for location: Hong Kong

Rise time Rise Azimuth (degrees) Set time Set Azimuth (degrees) Duration Max altitude (degrees)

No matching passes for this satellites